Time,TemperatureF,DewpointF,PressureIn,WindDirection,WindDirectionDegrees,WindSpeedMPH,WindSpeedGustMPH,Humidity,HourlyPrecipIn,Conditions,Clouds,dailyrainin,SoftwareType,DateUTC
2013-03-03 00:00:00,25.4,21.8,29.39,NNW,331,2.3,3.5,86,0.00,CLR,SCT,0.00,WeatherDisplay:10.37,2013-03-03 05:00:00,
2013-03-03 00:05:00,25.4,21.8,29.39,NW,314,3.3,7.0,86,0.00,CLR,SCT,0.00,WeatherDisplay:10.37,2013-03-03 05:05:00,
2013-03-03 00:10:00,25.4,21.8,29.39,NW,314,3.8,5.8,86,0.00,CLR,SCT,0.00,WeatherDisplay:10.37,2013-03-03 05:10:00,
2013-03-03 00:15:00,25.4,21.8,29.39,NW,315,3.7,4.6,86,0.00,CLR,SCT,0.00,WeatherDisplay:10.37,2013-03-03 05:15:00,
2013-03-03 00:20:00,25.4,21.5,29.39,WNW,299,4.5,6.9,85,0.00,CLR,SCT,0.00,WeatherDisplay:10.37,2013-03-03 05:20:00,
2013-03-03 00:25:00,25.4,21.8,29.39,NNW,334,4.7,5.8,86,0.00,CLR,SCT,0.00,WeatherDisplay:10.37,2013-03-03 05:25:00,
2013-03-03 00:30:00,25.3,21.4,29.39,WNW,287,5.1,6.9,85,0.00,CLR,SCT,0.00,WeatherDisplay:10.37,2013-03-03 05:30:00,
2013-03-03 00:35:00,25.3,21.7,29.39,NNW,330,4.4,5.8,86,0.00,CLR,SCT,0.00,WeatherDisplay:10.37,2013-03-03 05:35:00,
2013-03-03 00:40:00,25.2,21.3,29.39,NW,322,5.1,5.1,85,0.00,CLR,SCT,0.00,WeatherDisplay:10.37,2013-03-03 05:40:00,
2013-03-03 00:45:00,25.2,21.3,29.39,NW,324,5.9,5.9,85,0.00,CLR,SCT,0.00,WeatherDisplay:10.37,2013-03-03 05:45:00,
2013-03-03 00:50:00,25.2,21.6,29.39,East,94,4.9,6.9,86,0.00,CLR,SCT,0.00,WeatherDisplay:10.37,2013-03-03 05:50:00,
2013-03-03 00:55:00,25.1,21.5,29.40,NNW,337,3.5,4.6,86,0.00,CLR,SCT,0.00,WeatherDisplay:10.37,2013-03-03 05:55:00,
2013-03-03 01:00:00,25.1,21.5,29.40,NW,306,3.7,5.8,86,0.00,CLR,SCT,0.00,WeatherDisplay:10.37,2013-03-03 06:00:00,
2013-03-03 01:05:00,25.1,21.5,29.40,NW,316,2.8,5.8,86,0.00,CLR,SCT,0.00,WeatherDisplay:10.37,2013-03-03 06:05:00,
2013-03-03 01:10:00,25.1,21.5,29.40,West,277,4.1,5.8,86,0.00,CLR,SCT,0.00,WeatherDisplay:10.37,2013-03-03 06:10:00,
2013-03-03 01:15:00,25.1,21.5,29.40,NW,311,3.2,8.1,86,0.00,CLR,SCT,0.00,WeatherDisplay:10.37,2013-03-03 06:15:00,
2013-03-03 01:20:00,25.1,21.5,29.40,West,277,2.2,5.8,86,0.00,CLR,SCT,0.00,WeatherDisplay:10.37,2013-03-03 06:20:00,
2013-03-03 01:25:00,25.1,21.5,29.40,WNW,295,3.7,5.8,86,0.00,CLR,SCT,0.00,WeatherDisplay:10.37,2013-03-03 06:25:00,
2013-03-03 01:30:00,25.0,21.1,29.40,NW,305,4.4,8.1,85,0.00,CLR,SCT,0.00,WeatherDisplay:10.37,2013-03-03 06:30:00,
2013-03-03 01:35:00,25.0,21.1,29.40,NW,304,3.6,6.9,85,0.00,CLR,SCT,0.00,WeatherDisplay:10.37,2013-03-03 06:35:00,
2013-03-03 01:40:00,25.0,21.1,29.40,West,271,3.0,5.8,85,0.00,CLR,SCT,0.00,WeatherDisplay:10.37,2013-03-03 06:40:00,
2013-03-03 01:45:00,25.0,21.1,29.39,NNW,331,4.2,5.8,85,0.00,CLR,SCT,0.00,WeatherDisplay:10.37,2013-03-03 06:45:00,
2013-03-03 01:50:00,24.9,21.0,29.39,NW,317,4.9,6.9,85,0.00,CLR,SCT,0.00,WeatherDisplay:10.37,2013-03-03 06:50:00,
2013-03-03 01:55:00,24.9,21.0,29.39,NW,310,3.0,5.8,85,0.00,CLR,SCT,0.00,WeatherDisplay:10.37,2013-03-03 06:55:00,
2013-03-03 02:00:00,24.9,21.0,29.39,NW,321,2.5,5.8,85,0.00,CLR,SCT,0.00,WeatherDisplay:10.37,2013-03-03 07:00:00,
2013-03-03 02:05:00,24.9,21.0,29.39,WNW,301,4.0,5.8,85,0.00,CLR,SCT,0.00,WeatherDisplay:10.37,2013-03-03 07:05:00,
2013-03-03 02:10:00,24.8,20.9,29.39,NW,309,5.1,5.8,85,0.00,CLR,SCT,0.00,WeatherDisplay:10.37,2013-03-03 07:10:00,
2013-03-03 02:15:00,24.8,20.9,29.39,NNW,346,4.4,6.9,85,0.00,CLR,SCT,0.00,WeatherDisplay:10.37,2013-03-03 07:15:00,
2013-03-03 02:20:00,24.7,20.8,29.39,NW,304,3.5,4.6,85,0.00,CLR,SCT,0.00,WeatherDisplay:10.37,2013-03-03 07:20:00,
2013-03-03 02:25:00,24.7,20.8,29.38,NW,325,4.0,5.0,85,0.00,CLR,SCT,0.00,WeatherDisplay:10.37,2013-03-03 07:25:00,
2013-03-03 02:30:00,24.6,20.5,29.38,NW,321,5.4,10.4,84,0.00,CLR,SCT,0.00,WeatherDisplay:10.37,2013-03-03 07:30:00,
2013-03-03 02:35:00,24.5,20.4,29.38,NNW,333,6.1,11.5,84,0.00,CLR,SCT,0.00,WeatherDisplay:10.37,2013-03-03 07:35:00,
2013-03-03 02:40:00,24.5,20.4,29.38,WSW,254,5.9,9.2,84,0.00,CLR,SCT,0.00,WeatherDisplay:10.37,2013-03-03 07:40:00,
2013-03-03 02:45:00,24.4,20.3,29.38,NNW,332,3.7,11.5,84,0.00,CLR,SCT,0.00,WeatherDisplay:10.37,2013-03-03 07:45:00,
2013-03-03 02:50:00,24.4,20.3,29.38,NNW,327,3.8,5.8,84,0.00,CLR,SCT,0.00,WeatherDisplay:10.37,2013-03-03 07:50:00,
2013-03-03 02:55:00,24.4,20.3,29.37,WNW,299,4.0,8.1,84,0.00,CLR,SCT,0.00,WeatherDisplay:10.37,2013-03-03 07:55:00,
2013-03-03 03:00:00,24.4,20.3,29.37,NNW,331,3.5,6.9,84,0.00,CLR,SCT,0.00,WeatherDisplay:10.37,2013-03-03 08:00:00,
2013-03-03 03:05:00,24.4,20.3,29.37,WNW,286,3.4,4.6,84,0.00,CLR,SCT,0.00,WeatherDisplay:10.37,2013-03-03 08:05:00,
2013-03-03 03:10:00,24.4,20.3,29.37,NW,325,4.9,4.9,84,0.00,CLR,SCT,0.00,WeatherDisplay:10.37,2013-03-03 08:10:00,
2013-03-03 03:15:00,24.3,20.2,29.37,NW,313,3.2,5.8,84,0.00,CLR,SCT,0.00,WeatherDisplay:10.37,2013-03-03 08:15:00,
2013-03-03 03:20:00,24.3,20.2,29.37,WNW,295,5.5,10.4,84,0.00,CLR,SCT,0.00,WeatherDisplay:10.37,2013-03-03 08:20:00,
2013-03-03 03:25:00,24.3,20.2,29.37,NW,314,3.9,6.9,84,0.00,CLR,SCT,0.00,WeatherDisplay:10.37,2013-03-03 08:25:00,
2013-03-03 03:30:00,24.2,20.1,29.37,NW,320,3.7,5.0,84,0.00,CLR,SCT,0.00,WeatherDisplay:10.37,2013-03-03 08:30:00,
2013-03-03 03:35:00,24.3,20.2,29.37,WNW,299,3.9,4.6,84,0.00,CLR,SCT,0.00,WeatherDisplay:10.37,2013-03-03 08:35:00,
2013-03-03 03:40:00,24.2,19.8,29.37,WNW,303,4.4,8.1,83,0.00,CLR,SCT,0.00,WeatherDisplay:10.37,2013-03-03 08:40:00,
2013-03-03 03:45:00,24.2,19.8,29.37,WNW,294,4.7,7.0,83,0.00,CLR,SCT,0.00,WeatherDisplay:10.37,2013-03-03 08:45:00,
2013-03-03 03:50:00,24.2,19.8,29.37,NE,34,5.0,5.8,83,0.00,CLR,SCT,0.00,WeatherDisplay:10.37,2013-03-03 08:50:00,
2013-03-03 03:55:00,24.2,19.8,29.37,NNW,341,3.1,7.0,83,0.00,CLR,SCT,0.00,WeatherDisplay:10.37,2013-03-03 08:55:00,
2013-03-03 04:00:00,24.2,20.1,29.37,WNW,294,3.8,4.6,84,0.00,CLR,SCT,0.00,WeatherDisplay:10.37,2013-03-03 09:00:00,
2013-03-03 04:05:00,24.2,19.8,29.37,NNW,327,4.1,4.1,83,0.00,CLR,SCT,0.00,WeatherDisplay:10.37,2013-03-03 09:05:00,
2013-03-03 04:10:00,24.2,19.8,29.37,WNW,302,3.6,6.9,83,0.00,CLR,SCT,0.00,WeatherDisplay:10.37,2013-03-03 09:10:00,
2013-03-03 04:15:00,24.1,19.7,29.37,NNW,331,4.5,6.9,83,0.00,CLR,SCT,0.00,WeatherDisplay:10.37,2013-03-03 09:15:00,
2013-03-03 04:20:00,24.1,19.7,29.37,WNW,292,5.4,5.8,83,0.00,CLR,SCT,0.00,WeatherDisplay:10.37,2013-03-03 09:20:00,
2013-03-03 04:25:00,24.0,19.6,29.37,NW,304,4.4,5.8,83,0.00,CLR,SCT,0.00,WeatherDisplay:10.37,2013-03-03 09:25:00,
2013-03-03 04:31:00,24.0,19.6,29.37,NNW,335,4.3,10.4,83,0.00,CLR,SCT,0.00,WeatherDisplay:10.37,2013-03-03 09:31:00,
2013-03-03 04:36:00,23.9,19.5,29.37,WNW,286,2.9,4.6,83,0.00,CLR,SCT,0.00,WeatherDisplay:10.37,2013-03-03 09:36:00,
2013-03-03 04:41:00,23.9,19.5,29.37,NW,322,5.1,9.0,83,0.00,CLR,SCT,0.00,WeatherDisplay:10.37,2013-03-03 09:41:00,
2013-03-03 04:46:00,23.8,19.4,29.38,WNW,302,5.0,8.1,83,0.00,CLR,SCT,0.00,WeatherDisplay:10.37,2013-03-03 09:46:00,
2013-03-03 04:51:00,23.8,19.4,29.37,West,278,4.1,5.8,83,0.00,CLR,SCT,0.00,WeatherDisplay:10.37,2013-03-03 09:51:00,
2013-03-03 04:56:00,23.7,19.6,29.37,NW,306,2.7,4.6,84,0.00,CLR,SCT,0.00,WeatherDisplay:10.37,2013-03-03 09:56:00,
2013-03-03 05:01:00,23.6,19.2,29.37,WNW,300,3.9,5.8,83,0.00,CLR,SCT,0.00,WeatherDisplay:10.37,2013-03-03 10:01:00,
2013-03-03 05:06:00,23.6,19.5,29.37,West,263,4.4,5.8,84,0.00,CLR,SCT,0.00,WeatherDisplay:10.37,2013-03-03 10:06:00,
2013-03-03 05:11:00,23.6,19.2,29.38,NW,309,3.0,4.6,83,0.00,CLR,SCT,0.00,WeatherDisplay:10.37,2013-03-03 10:11:00,
2013-03-03 05:16:00,23.6,19.2,29.38,NW,304,2.9,4.6,83,0.00,CLR,SCT,0.00,WeatherDisplay:10.37,2013-03-03 10:16:00,
2013-03-03 05:21:00,23.5,18.8,29.38,NNW,329,6.7,10.4,82,0.00,CLR,SCT,0.00,WeatherDisplay:10.37,2013-03-03 10:21:00,
2013-03-03 05:26:00,23.5,19.1,29.38,NW,319,4.0,5.8,83,0.00,CLR,SCT,0.00,WeatherDisplay:10.37,2013-03-03 10:26:00,
2013-03-03 05:31:00,23.5,19.1,29.38,WNW,302,3.3,6.0,83,0.00,CLR,SCT,0.00,WeatherDisplay:10.37,2013-03-03 10:31:00,
2013-03-03 05:36:00,23.5,19.1,29.38,NNW,345,2.7,4.6,83,0.00,CLR,SCT,0.00,WeatherDisplay:10.37,2013-03-03 10:36:00,
2013-03-03 05:41:00,23.6,19.2,29.38,NNW,329,4.6,5.8,83,0.00,CLR,SCT,0.00,WeatherDisplay:10.37,2013-03-03 10:41:00,
2013-03-03 05:46:00,23.6,19.2,29.38,North,5,3.1,4.6,83,0.00,CLR,SCT,0.00,WeatherDisplay:10.37,2013-03-03 10:46:00,
2013-03-03 05:51:00,23.6,19.2,29.38,WNW,293,4.4,6.9,83,0.00,CLR,SCT,0.00,WeatherDisplay:10.37,2013-03-03 10:51:00,
2013-03-03 05:56:00,23.6,19.2,29.38,NW,326,2.6,6.0,83,0.00,CLR,SCT,0.00,WeatherDisplay:10.37,2013-03-03 10:56:00,
2013-03-03 06:01:00,23.6,19.5,29.38,NW,310,2.6,3.5,84,0.00,CLR,SCT,0.00,WeatherDisplay:10.37,2013-03-03 11:01:00,
2013-03-03 06:06:00,23.5,19.1,29.38,WNW,292,2.3,4.6,83,0.00,CLR,SCT,0.00,WeatherDisplay:10.37,2013-03-03 11:06:00,
2013-03-03 06:11:00,23.5,19.1,29.38,NW,306,3.9,5.8,83,0.00,CLR,SCT,0.00,WeatherDisplay:10.37,2013-03-03 11:11:00,
2013-03-03 06:16:00,23.6,19.2,29.39,NNW,329,3.0,5.0,83,0.00,CLR,SCT,0.00,WeatherDisplay:10.37,2013-03-03 11:16:00,
2013-03-03 06:21:00,23.6,19.2,29.39,WNW,287,1.9,5.0,83,0.00,CLR,SCT,0.00,WeatherDisplay:10.37,2013-03-03 11:21:00,
2013-03-03 06:26:00,23.6,18.9,29.39,NW,324,4.4,5.8,82,0.00,CLR,SCT,0.00,WeatherDisplay:10.37,2013-03-03 11:26:00,
2013-03-03 06:31:00,23.6,18.6,29.39,WNW,302,2.9,5.0,81,0.00,CLR,SCT,0.00,WeatherDisplay:10.37,2013-03-03 11:31:00,
2013-03-03 06:36:00,23.7,19.0,29.39,WNW,302,3.6,5.8,82,0.00,CLR,SCT,0.00,WeatherDisplay:10.37,2013-03-03 11:36:00,
2013-03-03 06:41:00,23.7,18.4,29.39,WNW,296,1.8,3.5,80,0.00,CLR,SCT,0.00,WeatherDisplay:10.37,2013-03-03 11:41:00,
2013-03-03 06:46:00,23.7,18.1,29.39,West,271,4.3,6.9,79,0.00,CLR,SCT,0.00,WeatherDisplay:10.37,2013-03-03 11:46:00,
2013-03-03 06:51:00,23.6,18.0,29.39,WNW,292,3.5,5.8,79,0.00,CLR,SCT,0.00,WeatherDisplay:10.37,2013-03-03 11:51:00,
2013-03-03 06:56:00,23.7,18.1,29.39,West,267,4.6,7.0,79,0.00,CLR,SCT,0.00,WeatherDisplay:10.37,2013-03-03 11:56:00,
2013-03-03 07:01:00,23.7,17.8,29.39,NW,318,5.3,8.1,78,0.00,CLR,SCT,0.00,WeatherDisplay:10.37,2013-03-03 12:01:00,
2013-03-03 07:06:00,23.6,17.7,29.39,NW,308,3.7,5.0,78,0.00,CLR,SCT,0.00,WeatherDisplay:10.37,2013-03-03 12:06:00,
2013-03-03 07:11:00,23.6,17.4,29.39,NNW,346,3.4,5.8,77,0.00,CLR,SCT,0.00,WeatherDisplay:10.37,2013-03-03 12:11:00,
2013-03-03 07:16:00,23.7,17.5,29.39,NNW,327,4.0,5.0,77,0.00,CLR,SCT,0.00,WeatherDisplay:10.37,2013-03-03 12:16:00,
2013-03-03 07:21:00,23.8,17.9,29.39,NW,315,4.2,6.9,78,0.00,CLR,SCT,0.00,WeatherDisplay:10.37,2013-03-03 12:21:00,
2013-03-03 07:26:00,23.8,17.3,29.39,WNW,296,3.6,6.0,76,0.00,CLR,SCT,0.00,WeatherDisplay:10.37,2013-03-03 12:26:00,
2013-03-03 07:31:00,23.8,17.3,29.39,NNW,327,4.9,6.9,76,0.00,CLR,SCT,0.00,WeatherDisplay:10.37,2013-03-03 12:31:00,
2013-03-03 07:36:00,23.8,17.0,29.39,WNW,298,4.4,10.4,75,0.00,CLR,SCT,0.00,WeatherDisplay:10.37,2013-03-03 12:36:00,
2013-03-03 07:41:00,23.8,17.0,29.40,WNW,290,4.2,5.8,75,0.00,CLR,SCT,0.00,WeatherDisplay:10.37,2013-03-03 12:41:00,
2013-03-03 07:46:00,23.8,17.0,29.40,WNW,298,4.3,5.8,75,0.00,CLR,SCT,0.00,WeatherDisplay:10.37,2013-03-03 12:46:00,
2013-03-03 07:51:00,23.8,16.7,29.39,NW,309,4.3,8.1,74,0.00,CLR,SCT,0.00,WeatherDisplay:10.37,2013-03-03 12:51:00,
2013-03-03 07:56:00,23.9,17.1,29.40,WNW,284,3.2,6.0,75,0.00,CLR,SCT,0.00,WeatherDisplay:10.37,2013-03-03 12:56:00,
2013-03-03 08:01:00,23.8,16.4,29.39,NW,312,6.1,9.0,73,0.00,CLR,SCT,0.00,WeatherDisplay:10.37,2013-03-03 13:01:00,
2013-03-03 08:06:00,23.9,16.8,29.39,WNW,298,4.0,5.8,74,0.00,CLR,SCT,0.00,WeatherDisplay:10.37,2013-03-03 13:06:00,
2013-03-03 08:11:00,24.1,17.0,29.39,West,271,4.1,5.8,74,0.00,CLR,SCT,0.00,WeatherDisplay:10.37,2013-03-03 13:11:00,
2013-03-03 08:16:00,24.1,17.0,29.39,NNW,336,2.1,4.6,74,0.00,CLR,SCT,0.00,WeatherDisplay:10.37,2013-03-03 13:16:00,
2013-03-03 08:21:00,24.2,17.1,29.39,NW,321,3.6,5.0,74,0.00,CLR,SCT,0.00,WeatherDisplay:10.37,2013-03-03 13:21:00,
2013-03-03 08:26:00,24.4,17.0,29.39,West,274,5.3,8.0,73,0.00,CLR,SCT,0.00,WeatherDisplay:10.37,2013-03-03 13:26:00,
2013-03-03 08:31:00,24.4,17.3,29.39,NW,304,3.3,3.5,74,0.00,CLR,SCT,0.00,WeatherDisplay:10.37,2013-03-03 13:31:00,
2013-03-03 08:36:00,24.8,17.4,29.39,NW,311,3.9,6.9,73,0.00,CLR,SCT,0.00,WeatherDisplay:10.37,2013-03-03 13:36:00,
2013-03-03 08:41:00,24.7,17.0,29.39,WNW,290,4.5,6.9,72,0.00,CLR,SCT,0.00,WeatherDisplay:10.37,2013-03-03 13:41:00,
2013-03-03 08:46:00,24.8,17.7,29.39,WNW,291,3.3,6.0,74,0.00,CLR,SCT,0.00,WeatherDisplay:10.37,2013-03-03 13:46:00,
2013-03-03 08:51:00,24.8,16.7,29.39,NW,322,5.5,7.0,71,0.00,CLR,SCT,0.00,WeatherDisplay:10.37,2013-03-03 13:51:00,
2013-03-03 08:56:00,24.8,17.4,29.39,West,270,5.1,8.1,73,0.00,CLR,SCT,0.00,WeatherDisplay:10.37,2013-03-03 13:56:00,
2013-03-03 09:01:00,24.9,17.1,29.39,WSW,243,5.7,9.2,72,0.00,CLR,SCT,0.00,WeatherDisplay:10.37,2013-03-03 14:01:00,
2013-03-03 09:06:00,24.9,17.1,29.39,West,281,4.3,6.9,72,0.00,CLR,SCT,0.00,WeatherDisplay:10.37,2013-03-03 14:06:00,
2013-03-03 09:11:00,24.9,16.8,29.39,NW,309,4.4,5.8,71,0.00,CLR,SCT,0.00,WeatherDisplay:10.37,2013-03-03 14:11:00,
2013-03-03 09:16:00,25.0,16.9,29.39,NW,317,4.1,6.9,71,0.00,CLR,SCT,0.00,WeatherDisplay:10.37,2013-03-03 14:16:00,
2013-03-03 09:21:00,25.3,17.2,29.39,NNW,348,3.4,6.0,71,0.00,CLR,SCT,0.00,WeatherDisplay:10.37,2013-03-03 14:21:00,
2013-03-03 09:26:00,25.2,16.8,29.39,NW,315,4.9,6.9,70,0.00,CLR,SCT,0.00,WeatherDisplay:10.37,2013-03-03 14:26:00,
2013-03-03 09:31:00,25.3,17.2,29.38,WNW,294,4.4,6.0,71,0.00,CLR,SCT,0.00,WeatherDisplay:10.37,2013-03-03 14:31:00,
2013-03-03 09:36:00,25.5,17.4,29.38,NW,313,3.5,5.8,71,0.00,CLR,SCT,0.00,WeatherDisplay:10.37,2013-03-03 14:36:00,
2013-03-03 09:41:00,26.0,18.2,29.38,NW,325,3.9,9.0,72,0.00,CLR,SCT,0.00,WeatherDisplay:10.37,2013-03-03 14:41:00,
2013-03-03 09:46:00,26.5,18.4,29.38,West,264,3.0,4.6,71,0.00,CLR,SCT,0.00,WeatherDisplay:10.37,2013-03-03 14:46:00,
2013-03-03 09:51:00,26.6,17.5,29.37,NW,304,5.8,9.2,68,0.00,CLR,SCT,0.00,WeatherDisplay:10.37,2013-03-03 14:51:00,
2013-03-03 09:56:00,27.0,18.2,29.37,WNW,284,6.3,8.1,69,0.00,CLR,SCT,0.00,WeatherDisplay:10.37,2013-03-03 14:56:00,
2013-03-03 10:01:00,27.2,18.4,29.37,WNW,292,5.1,6.9,69,0.00,CLR,SCT,0.00,WeatherDisplay:10.37,2013-03-03 15:01:00,
2013-03-03 10:06:00,27.2,18.4,29.37,NW,319,6.4,12.7,69,0.00,CLR,SCT,0.00,WeatherDisplay:10.37,2013-03-03 15:06:00,
2013-03-03 10:11:00,27.1,17.9,29.38,WNW,297,4.6,8.1,68,0.00,CLR,SCT,0.00,WeatherDisplay:10.37,2013-03-03 15:11:00,
2013-03-03 10:16:00,26.8,18.0,29.37,West,281,6.1,6.9,69,0.00,CLR,SCT,0.00,WeatherDisplay:10.37,2013-03-03 15:16:00,
2013-03-03 10:21:00,27.1,18.3,29.37,NW,308,3.8,6.9,69,0.00,CLR,SCT,0.00,WeatherDisplay:10.37,2013-03-03 15:21:00,
2013-03-03 10:26:00,27.4,17.9,29.37,NW,321,5.7,7.0,67,0.00,CLR,SCT,0.00,WeatherDisplay:10.37,2013-03-03 15:26:00,
2013-03-03 10:31:00,27.3,18.5,29.37,NW,311,3.6,5.0,69,0.00,CLR,SCT,0.00,WeatherDisplay:10.37,2013-03-03 15:31:00,
2013-03-03 10:36:00,27.4,17.9,29.37,WNW,297,4.7,5.8,67,0.00,CLR,SCT,0.00,WeatherDisplay:10.37,2013-03-03 15:36:00,
2013-03-03 10:41:00,27.7,18.2,29.37,NW,325,6.5,9.2,67,0.00,CLR,SCT,0.00,WeatherDisplay:10.37,2013-03-03 15:41:00,
2013-03-03 10:46:00,28.0,18.5,29.37,NNE,19,4.7,10.0,67,0.00,CLR,SCT,0.00,WeatherDisplay:10.37,2013-03-03 15:46:00,
2013-03-03 10:51:00,28.0,18.5,29.37,North,360,4.2,8.1,67,0.00,CLR,SCT,0.00,WeatherDisplay:10.37,2013-03-03 15:51:00,
2013-03-03 10:56:00,28.5,18.9,29.37,WNW,291,4.5,8.1,67,0.00,CLR,SCT,0.00,WeatherDisplay:10.37,2013-03-03 15:56:00,
2013-03-03 11:01:00,28.4,18.5,29.37,WNW,296,4.8,5.8,66,0.00,CLR,SCT,0.00,WeatherDisplay:10.37,2013-03-03 16:01:00,
2013-03-03 11:06:00,28.4,18.5,29.37,WNW,301,4.8,5.8,66,0.00,CLR,SCT,0.00,WeatherDisplay:10.37,2013-03-03 16:06:00,
2013-03-03 11:11:00,28.3,18.7,29.37,NW,320,4.0,6.0,67,0.00,CLR,SCT,0.00,WeatherDisplay:10.37,2013-03-03 16:11:00,
2013-03-03 11:16:00,28.3,19.1,29.37,NNE,29,4.1,7.0,68,0.00,CLR,SCT,0.00,WeatherDisplay:10.37,2013-03-03 16:16:00,
2013-03-03 11:21:00,28.3,19.4,29.37,WNW,284,6.8,11.5,69,0.00,CLR,SCT,0.00,WeatherDisplay:10.37,2013-03-03 16:21:00,
2013-03-03 11:26:00,28.1,19.2,29.37,NNW,330,6.2,8.1,69,0.00,CLR,SCT,0.00,WeatherDisplay:10.37,2013-03-03 16:26:00,
2013-03-03 11:31:00,27.8,18.9,29.37,WNW,285,6.5,11.5,69,0.00,CLR,SCT,0.00,WeatherDisplay:10.37,2013-03-03 16:31:00,
2013-03-03 11:36:00,27.6,19.4,29.37,WNW,294,4.5,7.0,71,0.00,CLR,SCT,0.00,WeatherDisplay:10.37,2013-03-03 16:36:00,
2013-03-03 11:41:00,27.5,19.0,29.37,NW,317,6.1,9.2,70,0.00,CLR,SCT,0.00,WeatherDisplay:10.37,2013-03-03 16:41:00,
2013-03-03 11:46:00,27.8,19.3,29.37,NW,304,6.4,9.2,70,0.00,CLR,SCT,0.00,WeatherDisplay:10.37,2013-03-03 16:46:00,
2013-03-03 11:51:00,27.9,19.4,29.37,NW,317,6.6,9.0,70,0.00,CLR,SCT,0.00,WeatherDisplay:10.37,2013-03-03 16:51:00,
2013-03-03 11:56:00,28.1,20.2,29.36,WNW,297,5.1,6.9,72,0.00,CLR,SCT,0.00,WeatherDisplay:10.37,2013-03-03 16:56:00,
2013-03-03 12:01:00,28.5,20.3,29.36,NW,325,6.9,10.4,71,0.00,CLR,SCT,0.00,WeatherDisplay:10.37,2013-03-03 17:01:00,
2013-03-03 12:06:00,28.9,20.0,29.36,NNW,329,5.3,7.0,69,0.00,CLR,SCT,0.00,WeatherDisplay:10.37,2013-03-03 17:06:00,
2013-03-03 12:11:00,28.9,19.7,29.35,West,271,5.8,10.4,68,0.00,CLR,SCT,0.00,WeatherDisplay:10.37,2013-03-03 17:11:00,
2013-03-03 12:16:00,28.9,20.3,29.36,NW,321,4.5,5.8,70,0.00,CLR,SCT,0.00,WeatherDisplay:10.37,2013-03-03 17:16:00,
2013-03-03 12:21:00,29.1,20.5,29.35,WNW,289,5.5,8.1,70,0.00,CLR,SCT,0.00,WeatherDisplay:10.37,2013-03-03 17:21:00,
2013-03-03 12:26:00,29.0,20.4,29.35,NW,311,3.5,8.1,70,0.00,CLR,SCT,0.00,WeatherDisplay:10.37,2013-03-03 17:26:00,
2013-03-03 12:31:00,29.3,20.7,29.35,WNW,294,4.0,5.8,70,0.00,CLR,SCT,0.00,WeatherDisplay:10.37,2013-03-03 17:31:00,
2013-03-03 12:36:00,29.3,21.1,29.35,West,273,4.4,8.1,71,0.00,CLR,SCT,0.00,WeatherDisplay:10.37,2013-03-03 17:36:00,
2013-03-03 12:41:00,29.5,21.3,29.35,WNW,303,6.0,9.2,71,0.00,CLR,SCT,0.00,WeatherDisplay:10.37,2013-03-03 17:41:00,
2013-03-03 12:46:00,29.4,21.5,29.35,NW,315,5.5,6.9,72,0.00,CLR,SCT,0.00,WeatherDisplay:10.37,2013-03-03 17:46:00,
2013-03-03 12:51:00,29.0,21.1,29.35,NW,319,5.2,9.2,72,0.00,CLR,SCT,0.00,WeatherDisplay:10.37,2013-03-03 17:51:00,
2013-03-03 12:56:00,28.7,21.5,29.35,WNW,302,6.3,10.4,74,0.00,CLR,SCT,0.00,WeatherDisplay:10.37,2013-03-03 17:56:00,
2013-03-03 13:01:00,28.5,21.3,29.34,NW,304,5.7,10.4,74,0.00,CLR,SCT,0.00,WeatherDisplay:10.37,2013-03-03 18:01:00,
2013-03-03 13:06:00,28.5,21.6,29.34,NW,305,7.6,9.2,75,0.00,CLR,SCT,0.00,WeatherDisplay:10.37,2013-03-03 18:06:00,
2013-03-03 13:11:00,28.2,21.3,29.35,WNW,296,6.7,10.4,75,0.00,CLR,SCT,0.00,WeatherDisplay:10.37,2013-03-03 18:11:00,
2013-03-03 13:16:00,28.4,22.4,29.34,SW,234,5.6,7.0,78,0.00,CLR,SCT,0.00,WeatherDisplay:10.37,2013-03-03 18:16:00,
2013-03-03 13:21:00,28.5,23.1,29.34,WNW,303,5.1,9.2,80,0.00,CLR,SCT,0.00,WeatherDisplay:10.37,2013-03-03 18:21:00,
2013-03-03 13:26:00,28.1,23.3,29.35,WNW,288,6.2,8.1,82,0.00,CLR,SCT,0.00,WeatherDisplay:10.37,2013-03-03 18:26:00,
2013-03-03 13:31:00,27.6,23.1,29.34,NW,311,6.3,9.2,83,0.00,CLR,SCT,0.00,WeatherDisplay:10.37,2013-03-03 18:31:00,
2013-03-03 13:36:00,27.2,23.0,29.34,NW,322,7.0,9.2,84,0.00,CLR,SCT,0.00,WeatherDisplay:10.37,2013-03-03 18:36:00,
2013-03-03 13:41:00,27.4,23.5,29.34,NNW,330,5.6,11.0,85,0.00,CLR,SCT,0.00,WeatherDisplay:10.37,2013-03-03 18:41:00,
2013-03-03 13:46:00,27.3,23.7,29.34,North,351,5.4,8.0,86,0.00,CLR,SCT,0.00,WeatherDisplay:10.37,2013-03-03 18:46:00,
2013-03-03 13:51:00,27.2,23.6,29.34,WSW,242,5.8,9.2,86,0.00,CLR,SCT,0.00,WeatherDisplay:10.37,2013-03-03 18:51:00,
2013-03-03 13:56:00,27.0,23.6,29.34,WNW,300,4.7,5.8,87,0.00,CLR,SCT,0.00,WeatherDisplay:10.37,2013-03-03 18:56:00,
2013-03-03 14:01:00,26.8,23.2,29.34,WNW,287,3.3,5.8,86,0.00,CLR,SCT,0.00,WeatherDisplay:10.37,2013-03-03 19:01:00,
2013-03-03 14:06:00,26.6,23.3,29.34,WNW,300,4.2,5.8,87,0.00,CLR,SCT,0.00,WeatherDisplay:10.37,2013-03-03 19:06:00,
2013-03-03 14:11:00,26.4,23.3,29.34,NW,313,4.4,6.9,88,0.00,CLR,SCT,0.00,WeatherDisplay:10.37,2013-03-03 19:11:00,
2013-03-03 14:16:00,26.4,23.6,29.34,NW,310,5.8,6.9,89,0.00,CLR,SCT,0.00,WeatherDisplay:10.37,2013-03-03 19:16:00,
2013-03-03 14:21:00,26.6,23.8,29.34,NW,308,5.8,8.1,89,0.00,CLR,SCT,0.00,WeatherDisplay:10.37,2013-03-03 19:21:00,
2013-03-03 14:26:00,26.8,23.7,29.34,WNW,290,4.3,5.0,88,0.00,CLR,SCT,0.00,WeatherDisplay:10.37,2013-03-03 19:26:00,
2013-03-03 14:31:00,27.1,23.5,29.34,WNW,294,6.4,9.2,86,0.00,CLR,SCT,0.00,WeatherDisplay:10.37,2013-03-03 19:31:00,
2013-03-03 14:36:00,27.3,23.7,29.34,WNW,293,4.1,6.0,86,0.00,CLR,SCT,0.00,WeatherDisplay:10.37,2013-03-03 19:36:00,
2013-03-03 14:41:00,27.8,24.7,29.34,NW,311,3.4,4.6,88,0.00,CLR,SCT,0.00,WeatherDisplay:10.37,2013-03-03 19:41:00,
2013-03-03 14:46:00,27.8,24.2,29.34,West,280,4.3,5.8,86,0.00,CLR,SCT,0.00,WeatherDisplay:10.37,2013-03-03 19:46:00,
2013-03-03 14:51:00,28.0,24.9,29.34,SW,227,5.6,9.2,88,0.00,CLR,SCT,0.00,WeatherDisplay:10.37,2013-03-03 19:51:00,
2013-03-03 14:56:00,27.7,24.3,29.34,NW,308,4.7,5.8,87,0.00,CLR,SCT,0.00,WeatherDisplay:10.37,2013-03-03 19:56:00,
2013-03-03 15:01:00,27.7,24.6,29.34,NW,311,4.7,8.1,88,0.00,CLR,SCT,0.00,WeatherDisplay:10.37,2013-03-03 20:01:00,
2013-03-03 15:06:00,27.5,24.4,29.34,NNW,331,3.3,5.8,88,0.00,CLR,SCT,0.00,WeatherDisplay:10.37,2013-03-03 20:06:00,
2013-03-03 15:11:00,27.5,24.7,29.34,WNW,282,3.8,5.8,89,0.00,CLR,SCT,0.00,WeatherDisplay:10.37,2013-03-03 20:11:00,
2013-03-03 15:16:00,27.6,24.8,29.34,WNW,288,3.0,3.5,89,0.00,CLR,SCT,0.00,WeatherDisplay:10.37,2013-03-03 20:16:00,
2013-03-03 15:21:00,27.7,25.2,29.34,WNW,284,4.5,5.8,90,0.00,CLR,SCT,0.00,WeatherDisplay:10.37,2013-03-03 20:21:00,
2013-03-03 15:26:00,27.8,24.7,29.34,NW,308,4.6,5.8,88,0.00,CLR,SCT,0.00,WeatherDisplay:10.37,2013-03-03 20:26:00,
2013-03-03 15:31:00,27.9,24.8,29.34,West,275,5.6,9.2,88,0.00,CLR,SCT,0.00,WeatherDisplay:10.37,2013-03-03 20:31:00,
2013-03-03 15:36:00,27.9,24.5,29.34,NW,324,6.3,9.2,87,0.00,CLR,SCT,0.00,WeatherDisplay:10.37,2013-03-03 20:36:00,
2013-03-03 15:41:00,28.0,24.6,29.34,NW,325,5.6,8.1,87,0.00,CLR,SCT,0.00,WeatherDisplay:10.37,2013-03-03 20:41:00,
2013-03-03 15:46:00,28.2,24.6,29.34,NW,319,5.5,6.9,86,0.00,CLR,SCT,0.00,WeatherDisplay:10.37,2013-03-03 20:46:00,
2013-03-03 15:51:00,28.5,24.8,29.34,West,270,5.2,9.2,86,0.00,CLR,SCT,0.00,WeatherDisplay:10.37,2013-03-03 20:51:00,
2013-03-03 15:56:00,28.7,24.8,29.34,NNW,330,6.5,10.4,85,0.00,CLR,SCT,0.00,WeatherDisplay:10.37,2013-03-03 20:56:00,
2013-03-03 16:01:00,28.4,23.9,29.34,NW,305,5.8,8.1,83,0.00,CLR,SCT,0.00,WeatherDisplay:10.37,2013-03-03 21:01:00,
2013-03-03 16:06:00,28.2,24.0,29.35,North,349,5.5,7.0,84,0.00,CLR,SCT,0.00,WeatherDisplay:10.37,2013-03-03 21:06:00,
2013-03-03 16:11:00,28.2,24.3,29.35,NW,319,4.1,5.8,85,0.00,CLR,SCT,0.00,WeatherDisplay:10.37,2013-03-03 21:11:00,
2013-03-03 16:16:00,28.1,24.2,29.34,WNW,286,4.0,5.8,85,0.00,CLR,SCT,0.00,WeatherDisplay:10.37,2013-03-03 21:16:00,
2013-03-03 16:21:00,28.0,24.1,29.35,NNW,340,6.0,9.0,85,0.00,CLR,SCT,0.00,WeatherDisplay:10.37,2013-03-03 21:21:00,
2013-03-03 16:26:00,28.0,24.4,29.35,NNW,331,6.0,8.1,86,0.00,CLR,SCT,0.00,WeatherDisplay:10.37,2013-03-03 21:26:00,
2013-03-03 16:31:00,27.9,24.3,29.35,NNW,348,5.8,10.4,86,0.00,CLR,SCT,0.00,WeatherDisplay:10.37,2013-03-03 21:31:00,
2013-03-03 16:36:00,27.8,24.4,29.35,WNW,294,2.8,5.0,87,0.00,CLR,SCT,0.00,WeatherDisplay:10.37,2013-03-03 21:36:00,
2013-03-03 16:41:00,27.8,24.4,29.35,WNW,287,4.0,5.8,87,0.00,CLR,SCT,0.00,WeatherDisplay:10.37,2013-03-03 21:41:00,
2013-03-03 16:46:00,27.8,24.7,29.35,NW,323,2.7,4.6,88,0.00,CLR,SCT,0.00,WeatherDisplay:10.37,2013-03-03 21:46:00,
2013-03-03 16:51:00,27.7,24.6,29.35,WNW,287,4.5,5.8,88,0.00,CLR,SCT,0.00,WeatherDisplay:10.37,2013-03-03 21:51:00,
2013-03-03 16:56:00,27.7,24.9,29.35,NNW,348,3.1,6.0,89,0.00,CLR,SCT,0.00,WeatherDisplay:10.37,2013-03-03 21:56:00,
2013-03-03 17:01:00,27.7,24.9,29.35,WNW,285,4.2,5.8,89,0.00,CLR,SCT,0.00,WeatherDisplay:10.37,2013-03-03 22:01:00,
2013-03-03 17:06:00,27.6,24.8,29.35,WNW,296,2.8,3.5,89,0.00,CLR,SCT,0.00,WeatherDisplay:10.37,2013-03-03 22:06:00,
2013-03-03 17:11:00,27.6,24.8,29.35,West,264,3.9,5.8,89,0.00,CLR,SCT,0.00,WeatherDisplay:10.37,2013-03-03 22:11:00,
2013-03-03 17:16:00,27.6,24.8,29.35,WNW,298,4.6,6.9,89,0.00,CLR,SCT,0.00,WeatherDisplay:10.37,2013-03-03 22:16:00,
2013-03-03 17:21:00,27.6,24.5,29.35,NW,305,5.2,8.1,88,0.00,CLR,SCT,0.00,WeatherDisplay:10.37,2013-03-03 22:21:00,
2013-03-03 17:26:00,27.6,24.2,29.35,North,355,2.6,4.6,87,0.00,CLR,SCT,0.00,WeatherDisplay:10.37,2013-03-03 22:26:00,
2013-03-03 17:31:00,27.6,24.2,29.35,NNW,332,8.0,11.5,87,0.00,CLR,SCT,0.00,WeatherDisplay:10.37,2013-03-03 22:31:00,
2013-03-03 17:36:00,27.6,24.0,29.35,NW,322,3.8,7.0,86,0.00,CLR,SCT,0.00,WeatherDisplay:10.37,2013-03-03 22:36:00,
2013-03-03 17:41:00,27.5,24.1,29.35,NW,324,3.3,5.0,87,0.00,CLR,SCT,0.00,WeatherDisplay:10.37,2013-03-03 22:41:00,
2013-03-03 17:46:00,27.4,24.3,29.35,West,281,3.6,6.0,88,0.00,CLR,SCT,0.00,WeatherDisplay:10.37,2013-03-03 22:46:00,
2013-03-03 17:51:00,27.4,24.3,29.35,NW,309,3.3,4.0,88,0.00,CLR,SCT,0.00,WeatherDisplay:10.37,2013-03-03 22:51:00,
2013-03-03 17:56:00,27.3,24.2,29.36,NW,309,3.2,6.0,88,0.00,CLR,SCT,0.00,WeatherDisplay:10.37,2013-03-03 22:56:00,
2013-03-03 18:01:00,27.3,24.2,29.36,NW,311,3.0,5.8,88,0.00,CLR,SCT,0.00,WeatherDisplay:10.37,2013-03-03 23:01:00,
2013-03-03 18:06:00,27.3,24.2,29.36,WNW,292,2.4,5.0,88,0.00,CLR,SCT,0.00,WeatherDisplay:10.37,2013-03-03 23:06:00,
2013-03-03 18:11:00,27.3,24.2,29.36,NW,306,2.0,5.0,88,0.00,CLR,SCT,0.00,WeatherDisplay:10.37,2013-03-03 23:11:00,
2013-03-03 18:16:00,27.4,24.3,29.36,WNW,290,4.6,6.0,88,0.00,CLR,SCT,0.00,WeatherDisplay:10.37,2013-03-03 23:16:00,
2013-03-03 18:21:00,27.4,24.0,29.36,WNW,290,4.5,6.9,87,0.00,CLR,SCT,0.00,WeatherDisplay:10.37,2013-03-03 23:21:00,
2013-03-03 18:26:00,27.4,24.0,29.36,WNW,288,4.7,6.0,87,0.00,CLR,SCT,0.00,WeatherDisplay:10.37,2013-03-03 23:26:00,
2013-03-03 18:31:00,27.4,24.0,29.36,West,263,4.8,6.9,87,0.00,CLR,SCT,0.00,WeatherDisplay:10.37,2013-03-03 23:31:00,
2013-03-03 18:36:00,27.4,24.0,29.36,NNW,331,5.1,8.1,87,0.00,CLR,SCT,0.00,WeatherDisplay:10.37,2013-03-03 23:36:00,
2013-03-03 18:41:00,27.4,24.0,29.36,WNW,293,4.9,8.1,87,0.00,CLR,SCT,0.00,WeatherDisplay:10.37,2013-03-03 23:41:00,
2013-03-03 18:46:00,27.4,23.8,29.36,NW,313,3.8,8.1,86,0.00,CLR,SCT,0.00,WeatherDisplay:10.37,2013-03-03 23:46:00,
2013-03-03 18:51:00,27.3,23.7,29.37,North,350,4.1,4.6,86,0.00,CLR,SCT,0.00,WeatherDisplay:10.37,2013-03-03 23:51:00,
2013-03-03 18:56:00,27.3,23.4,29.37,North,355,6.0,8.1,85,0.00,CLR,SCT,0.00,WeatherDisplay:10.37,2013-03-03 23:56:00,
2013-03-03 19:01:00,27.4,23.5,29.37,NW,326,4.9,8.1,85,0.00,CLR,SCT,0.00,WeatherDisplay:10.37,2013-03-04 00:01:00,
2013-03-03 19:06:00,27.3,23.1,29.37,WNW,296,3.7,6.9,84,0.00,CLR,SCT,0.00,WeatherDisplay:10.37,2013-03-04 00:06:00,
2013-03-03 19:11:00,27.3,23.1,29.37,WNW,302,3.7,10.4,84,0.00,CLR,SCT,0.00,WeatherDisplay:10.37,2013-03-04 00:11:00,
2013-03-03 19:16:00,27.3,23.1,29.37,WNW,297,4.5,8.1,84,0.00,CLR,SCT,0.00,WeatherDisplay:10.37,2013-03-04 00:16:00,
2013-03-03 19:21:00,27.3,22.8,29.38,WNW,293,4.0,5.8,83,0.00,CLR,SCT,0.00,WeatherDisplay:10.37,2013-03-04 00:21:00,
2013-03-03 19:26:00,27.3,22.5,29.37,WNW,291,6.0,9.0,82,0.00,CLR,SCT,0.00,WeatherDisplay:10.37,2013-03-04 00:26:00,
2013-03-03 19:31:00,27.2,22.4,29.37,WNW,286,4.0,5.8,82,0.00,CLR,SCT,0.00,WeatherDisplay:10.37,2013-03-04 00:31:00,
2013-03-03 19:36:00,27.2,22.1,29.38,NW,308,5.3,9.2,81,0.00,CLR,SCT,0.00,WeatherDisplay:10.37,2013-03-04 00:36:00,
2013-03-03 19:41:00,27.2,22.1,29.38,NNW,334,3.3,6.0,81,0.00,CLR,SCT,0.00,WeatherDisplay:10.37,2013-03-04 00:41:00,
2013-03-03 19:46:00,27.1,21.7,29.38,NNW,340,5.8,7.0,80,0.00,CLR,SCT,0.00,WeatherDisplay:10.37,2013-03-04 00:46:00,
2013-03-03 19:51:00,27.1,21.5,29.38,WNW,288,6.1,9.2,79,0.00,CLR,SCT,0.00,WeatherDisplay:10.37,2013-03-04 00:51:00,
2013-03-03 19:56:00,27.1,21.5,29.38,WNW,296,5.3,8.1,79,0.00,CLR,SCT,0.00,WeatherDisplay:10.37,2013-03-04 00:56:00,
2013-03-03 20:01:00,27.0,21.1,29.39,WNW,300,4.9,6.9,78,0.00,CLR,SCT,0.00,WeatherDisplay:10.37,2013-03-04 01:01:00,
2013-03-03 20:06:00,27.0,21.1,29.39,WNW,283,6.8,7.0,78,0.00,CLR,SCT,0.00,WeatherDisplay:10.37,2013-03-04 01:06:00,
2013-03-03 20:11:00,27.0,20.7,29.39,WNW,288,4.9,8.1,77,0.00,CLR,SCT,0.00,WeatherDisplay:10.37,2013-03-04 01:11:00,
2013-03-03 20:16:00,26.9,20.7,29.39,NW,306,6.6,8.1,77,0.00,CLR,SCT,0.00,WeatherDisplay:10.37,2013-03-04 01:16:00,
2013-03-03 20:21:00,27.0,20.7,29.39,NW,315,4.3,8.1,77,0.00,CLR,SCT,0.00,WeatherDisplay:10.37,2013-03-04 01:21:00,
2013-03-03 20:26:00,27.0,20.4,29.39,WNW,301,5.5,9.2,76,0.00,CLR,SCT,0.00,WeatherDisplay:10.37,2013-03-04 01:26:00,
2013-03-03 20:31:00,27.0,20.1,29.39,WNW,298,6.6,9.2,75,0.00,CLR,SCT,0.00,WeatherDisplay:10.37,2013-03-04 01:31:00,
2013-03-03 20:36:00,26.9,20.3,29.39,WNW,291,7.5,11.5,76,0.00,CLR,SCT,0.00,WeatherDisplay:10.37,2013-03-04 01:36:00,
2013-03-03 20:41:00,26.9,20.3,29.40,WNW,303,4.7,6.9,76,0.00,CLR,SCT,0.00,WeatherDisplay:10.37,2013-03-04 01:41:00,
2013-03-03 20:46:00,26.8,19.9,29.40,North,355,7.9,11.5,75,0.00,CLR,SCT,0.00,WeatherDisplay:10.37,2013-03-04 01:46:00,
2013-03-03 20:51:00,26.7,19.8,29.40,WNW,288,4.7,7.0,75,0.00,CLR,SCT,0.00,WeatherDisplay:10.37,2013-03-04 01:51:00,
2013-03-03 20:56:00,26.6,20.1,29.40,NW,312,5.3,9.2,76,0.00,CLR,SCT,0.00,WeatherDisplay:10.37,2013-03-04 01:56:00,
2013-03-03 21:01:00,26.6,19.7,29.40,WNW,299,4.8,9.0,75,0.00,CLR,SCT,0.00,WeatherDisplay:10.37,2013-03-04 02:01:00,
2013-03-03 21:06:00,26.5,19.6,29.40,NW,311,4.3,6.9,75,0.00,CLR,SCT,0.00,WeatherDisplay:10.37,2013-03-04 02:06:00,
2013-03-03 21:11:00,26.5,19.6,29.40,WNW,286,4.9,5.8,75,0.00,CLR,SCT,0.00,WeatherDisplay:10.37,2013-03-04 02:11:00,
2013-03-03 21:16:00,26.5,20.0,29.40,NW,304,3.5,5.8,76,0.00,CLR,SCT,0.00,WeatherDisplay:10.37,2013-03-04 02:16:00,
2013-03-03 21:21:00,26.4,19.5,29.40,NW,308,5.5,9.0,75,0.00,CLR,SCT,0.00,WeatherDisplay:10.37,2013-03-04 02:21:00,
2013-03-03 21:26:00,26.4,19.5,29.40,WNW,300,4.3,8.1,75,0.00,CLR,SCT,0.00,WeatherDisplay:10.37,2013-03-04 02:26:00,
2013-03-03 21:31:00,26.4,19.9,29.40,NW,318,5.9,10.0,76,0.00,CLR,SCT,0.00,WeatherDisplay:10.37,2013-03-04 02:31:00,
2013-03-03 21:36:00,26.3,19.5,29.40,WNW,291,3.9,5.0,75,0.00,CLR,SCT,0.00,WeatherDisplay:10.37,2013-03-04 02:36:00,
2013-03-03 21:41:00,26.2,19.7,29.40,NW,311,5.1,8.0,76,0.00,CLR,SCT,0.00,WeatherDisplay:10.37,2013-03-04 02:41:00,
2013-03-03 21:46:00,26.2,19.4,29.41,WNW,302,4.8,6.9,75,0.00,CLR,SCT,0.00,WeatherDisplay:10.37,2013-03-04 02:46:00,
2013-03-03 21:51:00,26.1,19.3,29.41,NW,304,5.3,6.9,75,0.00,CLR,SCT,0.00,WeatherDisplay:10.37,2013-03-04 02:51:00,
2013-03-03 21:56:00,26.1,19.6,29.41,WSW,244,4.9,9.0,76,0.00,CLR,SCT,0.00,WeatherDisplay:10.37,2013-03-04 02:56:00,
2013-03-03 22:01:00,26.0,19.2,29.40,WNW,289,5.2,9.2,75,0.00,CLR,SCT,0.00,WeatherDisplay:10.37,2013-03-04 03:01:00,
2013-03-03 22:06:00,25.9,19.4,29.41,NW,304,5.0,8.1,76,0.00,CLR,SCT,0.00,WeatherDisplay:10.37,2013-03-04 03:06:00,
2013-03-03 22:11:00,25.8,19.3,29.40,NW,307,4.4,9.2,76,0.00,CLR,SCT,0.00,WeatherDisplay:10.37,2013-03-04 03:11:00,
2013-03-03 22:16:00,25.7,19.2,29.41,WNW,300,5.8,8.1,76,0.00,CLR,SCT,0.00,WeatherDisplay:10.37,2013-03-04 03:16:00,
2013-03-03 22:21:00,25.6,19.1,29.40,WNW,302,3.5,6.0,76,0.00,CLR,SCT,0.00,WeatherDisplay:10.37,2013-03-04 03:21:00,
2013-03-03 22:26:00,25.5,19.0,29.40,NW,323,4.2,6.9,76,0.00,CLR,SCT,0.00,WeatherDisplay:10.37,2013-03-04 03:26:00,
2013-03-03 22:31:00,25.4,18.9,29.40,NW,315,4.5,8.1,76,0.00,CLR,SCT,0.00,WeatherDisplay:10.37,2013-03-04 03:31:00,
2013-03-03 22:36:00,25.4,18.6,29.40,WNW,295,4.0,7.0,75,0.00,CLR,SCT,0.00,WeatherDisplay:10.37,2013-03-04 03:36:00,
2013-03-03 22:41:00,25.3,18.5,29.40,West,275,4.5,5.8,75,0.00,CLR,SCT,0.00,WeatherDisplay:10.37,2013-03-04 03:41:00,
2013-03-03 22:46:00,25.3,18.8,29.40,NW,307,5.9,8.1,76,0.00,CLR,SCT,0.00,WeatherDisplay:10.37,2013-03-04 03:46:00,
2013-03-03 22:51:00,25.2,18.4,29.41,WNW,296,6.9,8.1,75,0.00,CLR,SCT,0.00,WeatherDisplay:10.37,2013-03-04 03:51:00,
2013-03-03 22:56:00,25.2,18.4,29.40,WNW,289,4.7,8.1,75,0.00,CLR,SCT,0.00,WeatherDisplay:10.37,2013-03-04 03:56:00,
2013-03-03 23:01:00,25.1,18.3,29.40,NNW,342,6.1,11.0,75,0.00,CLR,SCT,0.00,WeatherDisplay:10.37,2013-03-04 04:01:00,
2013-03-03 23:06:00,25.1,18.6,29.40,West,278,4.3,6.0,76,0.00,CLR,SCT,0.00,WeatherDisplay:10.37,2013-03-04 04:06:00,
2013-03-03 23:11:00,25.0,18.5,29.40,WNW,303,6.4,11.5,76,0.00,CLR,SCT,0.00,WeatherDisplay:10.37,2013-03-04 04:11:00,
2013-03-03 23:16:00,24.9,18.4,29.40,NW,312,3.6,4.6,76,0.00,CLR,SCT,0.00,WeatherDisplay:10.37,2013-03-04 04:16:00,
2013-03-03 23:21:00,24.9,18.4,29.40,WNW,296,4.3,8.1,76,0.00,CLR,SCT,0.00,WeatherDisplay:10.37,2013-03-04 04:21:00,
2013-03-03 23:26:00,24.8,18.3,29.40,NW,306,4.6,5.8,76,0.00,CLR,SCT,0.00,WeatherDisplay:10.37,2013-03-04 04:26:00,
2013-03-03 23:31:00,24.8,18.9,29.40,NW,316,6.0,6.9,78,0.00,CLR,SCT,0.00,WeatherDisplay:10.37,2013-03-04 04:31:00,
2013-03-03 23:36:00,24.7,18.2,29.40,West,275,4.9,6.9,76,0.00,CLR,SCT,0.00,WeatherDisplay:10.37,2013-03-04 04:36:00,
2013-03-03 23:41:00,24.7,18.2,29.40,NW,317,5.0,9.2,76,0.00,CLR,SCT,0.00,WeatherDisplay:10.37,2013-03-04 04:41:00,
2013-03-03 23:46:00,24.6,18.4,29.40,NW,315,6.0,10.4,77,0.00,CLR,SCT,0.00,WeatherDisplay:10.37,2013-03-04 04:46:00,
2013-03-03 23:51:00,24.5,18.0,29.40,WNW,290,6.5,10.4,76,0.00,CLR,SCT,0.00,WeatherDisplay:10.37,2013-03-04 04:51:00,
2013-03-03 23:56:00,24.5,18.0,29.40,NNW,333,5.8,8.0,76,0.00,CLR,SCT,0.00,WeatherDisplay:10.37,2013-03-04 04:56:00,